CEB991 RPLL-RPMR

Flight info

Callsign CEB991
Flight time N/A
Altitude 37000
Route VERDE2P VERDE A461 SAJ W3 IOO B472 COT W19 MELBY MELBY3R
Aircraft A339/H-SADE1E2E3GHIJ3J5M1P2RWXY/LB2D1

Departure

Time N/A
Airport Ninoy Aquino International Airport (RPLL)

Arrival

Time 2026-04-17 13:10
Airport General Santos International Airport (RPMR)
Time Latitude Longitude Altitude Speed Heading
2026-04-17 12:05 11.76692 121.60926 36894 ft 461 kts 136°
2026-04-17 12:06 11.71985 121.65411 36895 ft 461 kts 136°
2026-04-17 12:06 11.67214 121.69953 36896 ft 460 kts 136°
2026-04-17 12:07 11.62520 121.74410 36894 ft 460 kts 136°
2026-04-17 12:07 11.57845 121.78851 36887 ft 460 kts 136°
2026-04-17 12:08 11.53148 121.83315 36877 ft 459 kts 136°
2026-04-17 12:08 11.48457 121.87772 36880 ft 459 kts 136°
2026-04-17 12:09 11.43785 121.92195 36883 ft 460 kts 136°
2026-04-17 12:09 11.39081 121.96650 36886 ft 460 kts 136°
2026-04-17 12:10 11.34388 122.01098 36891 ft 460 kts 136°
2026-04-17 12:10 11.29700 122.05540 36900 ft 460 kts 136°
2026-04-17 12:11 11.25000 122.09993 36912 ft 458 kts 136°
2026-04-17 12:12 11.18018 122.16611 36943 ft 458 kts 136°
2026-04-17 12:12 11.13322 122.21059 36965 ft 458 kts 136°
2026-04-17 12:13 11.08655 122.25479 36991 ft 458 kts 136°
2026-04-17 12:13 11.04000 122.29876 36994 ft 457 kts 136°
2026-04-17 12:14 10.99311 122.34300 36983 ft 457 kts 136°
2026-04-17 12:14 10.94644 122.38705 36960 ft 457 kts 136°
2026-04-17 12:15 10.89983 122.43102 36936 ft 457 kts 137°
2026-04-17 12:15 10.85022 122.47243 36918 ft 457 kts 143°
2026-04-17 12:16 10.79674 122.50775 36905 ft 457 kts 149°
2026-04-17 12:16 10.73982 122.53707 36902 ft 457 kts 154°
2026-04-17 12:17 10.68208 122.56438 36899 ft 457 kts 154°
2026-04-17 12:17 10.62462 122.59153 36902 ft 456 kts 154°
2026-04-17 12:18 10.56673 122.61890 36901 ft 456 kts 154°
2026-04-17 12:18 10.50924 122.64610 36902 ft 456 kts 154°
2026-04-17 12:19 10.45163 122.67336 36905 ft 456 kts 154°
2026-04-17 12:19 10.39335 122.70091 36907 ft 456 kts 154°
2026-04-17 12:20 10.33591 122.72800 36911 ft 456 kts 155°
2026-04-17 12:20 10.27791 122.75535 36916 ft 456 kts 155°
2026-04-17 12:21 10.22034 122.78252 36919 ft 455 kts 155°
2026-04-17 12:21 10.16273 122.80968 36928 ft 455 kts 155°
2026-04-17 12:22 10.10521 122.83671 36941 ft 454 kts 155°
2026-04-17 12:22 10.04725 122.86398 36959 ft 454 kts 155°
2026-04-17 12:23 9.98909 122.89137 36973 ft 455 kts 155°
2026-04-17 12:23 9.93164 122.91843 36986 ft 455 kts 155°
2026-04-17 12:24 9.87373 122.94572 36993 ft 454 kts 155°
2026-04-17 12:24 9.81601 122.97289 37008 ft 454 kts 155°
2026-04-17 12:25 9.75842 122.99993 37011 ft 454 kts 155°
2026-04-17 12:25 9.70131 123.02670 37008 ft 453 kts 155°
2026-04-17 12:26 9.64385 123.05366 36992 ft 453 kts 155°
2026-04-17 12:26 9.58615 123.08076 36976 ft 453 kts 155°
2026-04-17 12:27 9.52898 123.10761 36960 ft 452 kts 155°
2026-04-17 12:27 9.47161 123.13455 36945 ft 453 kts 155°
2026-04-17 12:28 9.41436 123.16142 36926 ft 452 kts 155°
2026-04-17 12:28 9.35702 123.18832 36916 ft 451 kts 155°
2026-04-17 12:29 9.30022 123.21495 36909 ft 451 kts 155°
2026-04-17 12:29 9.24305 123.24178 36912 ft 451 kts 155°
2026-04-17 12:30 9.18576 123.26865 36909 ft 451 kts 154°
2026-04-17 12:30 9.12871 123.29540 36900 ft 450 kts 155°
2026-04-17 12:31 9.07127 123.32223 36890 ft 450 kts 155°
2026-04-17 12:31 9.01388 123.34903 36883 ft 450 kts 154°
2026-04-17 12:32 8.95713 123.37556 36887 ft 450 kts 154°
2026-04-17 12:32 8.89947 123.40252 36893 ft 449 kts 154°
2026-04-17 12:33 8.84228 123.42924 36894 ft 449 kts 154°
2026-04-17 12:33 8.78476 123.45615 36893 ft 449 kts 154°
2026-04-17 12:34 8.72771 123.48283 36895 ft 450 kts 154°
2026-04-17 12:34 8.67096 123.50934 36902 ft 450 kts 154°
2026-04-17 12:35 8.61397 123.53596 36910 ft 450 kts 154°
2026-04-17 12:35 8.55699 123.56255 36918 ft 449 kts 154°
2026-04-17 12:37 8.33030 123.66833 36952 ft 449 kts 154°
2026-04-17 12:38 8.27316 123.69496 36961 ft 449 kts 154°
2026-04-17 12:38 8.21597 123.72160 36424 ft 451 kts 154°
2026-04-17 12:38 8.18720 123.73500 35351 ft 460 kts 153°
2026-04-17 12:39 8.15845 123.74840 34354 ft 467 kts 153°
2026-04-17 12:39 8.12877 123.76223 33508 ft 469 kts 154°
2026-04-17 12:39 8.09909 123.77605 33008 ft 465 kts 153°
2026-04-17 12:39 8.06996 123.78960 32594 ft 459 kts 153°
2026-04-17 12:40 8.04104 123.80308 32204 ft 454 kts 154°
2026-04-17 12:40 8.01245 123.81639 31809 ft 449 kts 154°
2026-04-17 12:40 7.98388 123.82970 31417 ft 444 kts 154°
2026-04-17 12:40 7.95601 123.84267 31029 ft 440 kts 154°
2026-04-17 12:41 7.92791 123.85576 30648 ft 435 kts 154°
2026-04-17 12:41 7.90060 123.86847 30274 ft 431 kts 154°
2026-04-17 12:41 7.87317 123.88123 29873 ft 427 kts 154°
2026-04-17 12:41 7.84571 123.89401 29463 ft 424 kts 154°
2026-04-17 12:42 7.81894 123.90647 29033 ft 422 kts 154°
2026-04-17 12:42 7.79213 123.91894 28616 ft 419 kts 154°
2026-04-17 12:42 7.76538 123.93138 28223 ft 416 kts 154°
2026-04-17 12:42 7.73929 123.94349 27853 ft 413 kts 154°
2026-04-17 12:43 7.71308 123.95566 27471 ft 411 kts 154°
2026-04-17 12:43 7.68711 123.96772 27096 ft 408 kts 154°
2026-04-17 12:43 7.66132 123.97971 26721 ft 406 kts 154°
2026-04-17 12:43 7.63552 123.99170 26346 ft 404 kts 154°
2026-04-17 12:44 7.61003 124.00353 25972 ft 401 kts 154°
2026-04-17 12:44 7.58443 124.01542 25587 ft 400 kts 154°
2026-04-17 12:44 7.55902 124.02722 25201 ft 398 kts 154°
2026-04-17 12:44 7.53371 124.03898 24806 ft 397 kts 154°
2026-04-17 12:45 7.50821 124.05083 24404 ft 395 kts 154°
2026-04-17 12:45 7.48302 124.06252 24011 ft 394 kts 154°
2026-04-17 12:45 7.45764 124.07431 23624 ft 392 kts 154°
2026-04-17 12:45 7.43278 124.08585 23226 ft 392 kts 154°
2026-04-17 12:46 7.40801 124.09735 22840 ft 391 kts 154°
2026-04-17 12:46 7.38300 124.10896 22446 ft 390 kts 154°
2026-04-17 12:46 7.35809 124.12052 22060 ft 389 kts 154°
2026-04-17 12:46 7.33358 124.13191 21679 ft 388 kts 154°
2026-04-17 12:47 7.30888 124.14337 21313 ft 386 kts 154°
2026-04-17 12:47 7.28428 124.15479 20952 ft 385 kts 154°
2026-04-17 12:47 7.26013 124.16601 20590 ft 383 kts 154°
2026-04-17 12:47 7.23535 124.17750 20232 ft 381 kts 154°
2026-04-17 12:48 7.21129 124.18864 19897 ft 379 kts 154°
2026-04-17 12:48 7.18741 124.19988 19552 ft 377 kts 152°
2026-04-17 12:48 7.16461 124.21287 19206 ft 374 kts 146°
2026-04-17 12:48 7.14346 124.22804 18873 ft 371 kts 141°
2026-04-17 12:49 7.12336 124.24412 18549 ft 368 kts 140°
2026-04-17 12:49 7.10332 124.26047 18199 ft 367 kts 139°
2026-04-17 12:49 7.08347 124.27668 17851 ft 365 kts 139°
2026-04-17 12:49 7.06376 124.29274 17505 ft 363 kts 140°
2026-04-17 12:50 7.04365 124.30910 17135 ft 359 kts 140°
2026-04-17 12:50 7.02444 124.32470 16808 ft 350 kts 140°
2026-04-17 12:50 7.00547 124.34009 16509 ft 342 kts 140°
2026-04-17 12:50 6.98693 124.35513 16194 ft 337 kts 140°
2026-04-17 12:51 6.96887 124.36977 15895 ft 332 kts 140°
2026-04-17 12:51 6.95077 124.38443 15613 ft 331 kts 140°
2026-04-17 12:51 6.93261 124.39915 15277 ft 331 kts 141°
2026-04-17 12:51 6.91483 124.41355 14964 ft 330 kts 141°
2026-04-17 12:52 6.89672 124.42822 14662 ft 328 kts 141°
2026-04-17 12:52 6.87894 124.44263 14357 ft 327 kts 141°
2026-04-17 12:52 6.86107 124.45711 14052 ft 326 kts 141°
2026-04-17 12:52 6.84324 124.47154 13741 ft 325 kts 142°
2026-04-17 12:53 6.82558 124.48584 13437 ft 323 kts 142°
2026-04-17 12:53 6.80817 124.49992 13139 ft 322 kts 142°
2026-04-17 12:53 6.79049 124.51422 12827 ft 321 kts 142°
2026-04-17 12:53 6.77290 124.52845 12501 ft 320 kts 141°
2026-04-17 12:54 6.75551 124.54250 12183 ft 320 kts 141°
2026-04-17 12:54 6.73815 124.55656 11869 ft 319 kts 141°
2026-04-17 12:54 6.72080 124.57059 11552 ft 318 kts 141°
2026-04-17 12:54 6.70357 124.58453 11229 ft 318 kts 141°
2026-04-17 12:55 6.68622 124.59856 10911 ft 317 kts 141°
2026-04-17 12:55 6.66904 124.61246 10595 ft 316 kts 141°
2026-04-17 12:55 6.65168 124.62595 10265 ft 316 kts 142°
2026-04-17 12:55 6.63426 124.63911 10095 ft 310 kts 143°
2026-04-17 12:56 6.61685 124.65221 10056 ft 299 kts 143°
2026-04-17 12:56 6.60036 124.66465 9870 ft 294 kts 142°
2026-04-17 12:56 6.58403 124.67699 9678 ft 290 kts 142°
2026-04-17 12:56 6.56779 124.68929 9488 ft 286 kts 142°
2026-04-17 12:57 6.55176 124.70145 9301 ft 282 kts 142°
2026-04-17 12:57 6.53602 124.71339 9121 ft 279 kts 142°
2026-04-17 12:57 6.52024 124.72537 8925 ft 274 kts 142°
2026-04-17 12:57 6.50505 124.73691 8708 ft 270 kts 142°
2026-04-17 12:58 6.48996 124.74836 8481 ft 266 kts 142°
2026-04-17 12:58 6.47508 124.75964 8261 ft 262 kts 142°
2026-04-17 12:58 6.46043 124.77075 8046 ft 258 kts 142°
2026-04-17 12:58 6.44617 124.78157 7841 ft 254 kts 142°
2026-04-17 12:59 6.43212 124.79224 7639 ft 251 kts 142°
2026-04-17 12:59 6.41803 124.80293 7439 ft 247 kts 142°
2026-04-17 12:59 6.40421 124.81340 7247 ft 243 kts 142°
2026-04-17 12:59 6.39119 124.82408 7060 ft 239 kts 135°
2026-04-17 13:00 6.37994 124.83629 6878 ft 234 kts 127°
2026-04-17 13:00 6.37040 124.84934 6704 ft 230 kts 124°
2026-04-17 13:00 6.36130 124.86244 6538 ft 227 kts 123°
2026-04-17 13:00 6.35222 124.87557 6344 ft 223 kts 123°
2026-04-17 13:01 6.34342 124.88826 6127 ft 219 kts 123°
2026-04-17 13:01 6.33467 124.90083 5909 ft 215 kts 123°
2026-04-17 13:01 6.32622 124.91295 5679 ft 211 kts 123°
2026-04-17 13:01 6.31782 124.92496 5461 ft 207 kts 123°
2026-04-17 13:02 6.30953 124.93680 5253 ft 204 kts 124°
2026-04-17 13:02 6.30138 124.94844 5052 ft 200 kts 124°
2026-04-17 13:02 6.29340 124.95986 4858 ft 196 kts 124°
2026-04-17 13:02 6.28560 124.97099 4701 ft 191 kts 124°
2026-04-17 13:03 6.27852 124.98219 4550 ft 185 kts 117°
2026-04-17 13:03 6.27322 124.99391 4382 ft 181 kts 109°
2026-04-17 13:03 6.26934 125.00592 4212 ft 178 kts 107°
2026-04-17 13:03 6.26574 125.01779 4045 ft 174 kts 106°
2026-04-17 13:04 6.26223 125.02944 3877 ft 171 kts 106°
2026-04-17 13:04 6.25529 125.05237 3467 ft 170 kts 107°
2026-04-17 13:04 6.25163 125.06346 3311 ft 166 kts 118°
2026-04-17 13:05 6.24394 125.07184 3276 ft 159 kts 149°
2026-04-17 13:05 6.23391 125.07508 3196 ft 145 kts 171°
2026-04-17 13:05 6.22380 125.07635 3173 ft 144 kts 174°
2026-04-17 13:05 6.21377 125.07742 3141 ft 144 kts 174°
2026-04-17 13:06 6.20360 125.07853 3094 ft 143 kts 174°
2026-04-17 13:06 6.19347 125.07967 2935 ft 144 kts 173°
2026-04-17 13:06 6.18345 125.08084 2719 ft 142 kts 173°
2026-04-17 13:06 6.17333 125.08205 2520 ft 143 kts 172°
2026-04-17 13:07 6.16656 125.08287 2386 ft 143 kts 172°
2026-04-17 13:07 6.15334 125.08450 2141 ft 143 kts 172°
2026-04-17 13:07 6.14997 125.08491 2080 ft 143 kts 172°
2026-04-17 13:07 6.13321 125.08697 1760 ft 141 kts 173°
2026-04-17 13:08 6.12337 125.08818 1574 ft 141 kts 174°
2026-04-17 13:08 6.11367 125.08935 1389 ft 140 kts 174°
2026-04-17 13:08 6.10393 125.09052 1203 ft 140 kts 173°
2026-04-17 13:08 6.09418 125.09170 1016 ft 138 kts 174°
2026-04-17 13:09 6.08468 125.09277 814 ft 138 kts 173°
2026-04-17 13:09 6.07519 125.09415 617 ft 137 kts 173°
2026-04-17 13:09 6.06577 125.09515 541 ft 129 kts 171°
2026-04-17 13:09 6.05814 125.09618 540 ft 85 kts 172°
2026-04-17 13:10 6.05364 125.09673 540 ft 45 kts 173°
2026-04-17 13:10 6.05118 125.09702 540 ft 27 kts 173°
2026-04-17 13:10 6.04961 125.09721 540 ft 21 kts 173°
2026-04-17 13:10 6.04815 125.09738 540 ft 19 kts 173°
2026-04-17 13:11 6.04692 125.09753 540 ft 16 kts 173°
2026-04-17 13:11 6.04586 125.09766 540 ft 15 kts 173°
2026-04-17 13:11 6.04517 125.09793 540 ft 9 kts 126°
2026-04-17 13:11 6.04507 125.09852 540 ft 9 kts 83°
2026-04-17 13:12 6.04511 125.09911 540 ft 6 kts 106°
2026-04-17 13:12 6.04424 125.09948 540 ft 8 kts 204°
2026-04-17 13:12 6.04395 125.09898 540 ft 9 kts 261°
2026-04-17 13:13 6.04386 125.09828 540 ft 9 kts 269°
2026-04-17 13:13 6.04428 125.09788 540 ft 9 kts 343°
2026-04-17 13:13 6.04502 125.09776 540 ft 12 kts 352°
2026-04-17 13:13 6.04600 125.09763 540 ft 15 kts 354°
2026-04-17 13:14 6.04714 125.09750 540 ft 16 kts 353°
2026-04-17 13:14 6.04835 125.09736 540 ft 17 kts 353°
2026-04-17 13:14 6.04967 125.09720 540 ft 19 kts 353°
2026-04-17 13:14 6.05105 125.09702 540 ft 18 kts 353°
2026-04-17 13:15 6.05239 125.09686 540 ft 18 kts 353°
2026-04-17 13:15 6.05340 125.09673 540 ft 10 kts 353°
2026-04-17 13:15 6.05396 125.09701 540 ft 10 kts 63°
2026-04-17 13:15 6.05409 125.09783 540 ft 12 kts 84°
2026-04-17 13:16 6.05420 125.09872 540 ft 10 kts 71°
2026-04-17 13:16 6.05474 125.09905 540 ft 10 kts
2026-04-17 13:16 6.05537 125.09899 540 ft 9 kts 353°
2026-04-17 13:16 6.05615 125.09890 540 ft 12 kts 353°
2026-04-17 13:17 6.05687 125.09882 540 ft 8 kts 353°
2026-04-17 13:17 6.05740 125.09875 540 ft 4 kts 357°
2026-04-17 13:17 6.05766 125.09895 540 ft 3 kts 64°
2026-04-17 13:17 6.05772 125.09922 540 ft 3 kts 81°
2026-04-17 13:18 6.05776 125.09951 540 ft 1 kts 83°
2026-04-17 13:18 6.05776 125.09954 539 ft 0 kts 84°